Theta_e
311 313 318 320 319 319 319 314 312 310 304 305 307 310 310 310 310 311 313 315 315 315 315 317 317 317 317 315 315 315 315 315 314 311 310 307 307 308 309 309 310 309 308
311 314 318 320 319 320 319 315 313 310 304 305 307 309 310 310 310 311 312 315 315 315 315 316 317 317 317 316 315 314 313 312 312 311 309 308 309 309 308 307 306 306 307
313 314 318 319 319 320 320 315 313 311 305 305 306 309 310 310 310 311 312 314 314 315 315 316 316 317 316 315 314 313 313 312 312 311 309 309 308 308 306 307 310 309 308
313 315 317 318 320 321 320 316 313 311 305 304 306 308 310 310 310 310 312 313 314 315 316 316 316 316 316 316 314 314 313 311 311 310 309 309 308 307 307 308 310 310 310
313 315 317 318 320 321 320 316 314 311 306 304 305 307 310 310 310 309 310 313 313 315 316 315 316 316 316 315 315 315 313 312 311 310 309 308 308 308 307 307 309 310 310
313 316 317 319 321 321 320 316 314 312 306 304 305 307 309 310 310 310 310 311 312 314 315 316 315 315 315 314 315 314 313 313 311 311 311 309 309 310 309 308 308 309 308
314 315 317 319 321 321 320 317 314 312 307 304 305 306 308 309 310 310 310 310 311 314 315 316 316 315 315 315 315 314 313 313 312 311 311 311 310 310 309 309 310 310 309
314 315 317 320 321 321 319 316 314 312 308 304 304 306 307 309 309 310 310 310 310 312 314 315 316 316 315 315 314 314 313 313 313 313 313 312 312 311 311 310 310 310 309
315 316 318 320 321 321 319 316 314 312 308 304 304 305 306 308 309 309 310 310 308 310 312 314 314 315 315 313 313 314 314 313 313 313 313 312 312 312 311 311 311 310 310
316 317 319 320 320 320 319 316 314 313 310 305 304 305 306 307 308 308 309 310 309 310 311 311 312 312 312 312 312 312 313 313 313 313 313 312 313 312 312 311 311 310 308
316 317 318 319 320 320 318 316 314 313 311 307 304 305 305 306 307 308 308 310 310 309 310 311 311 311 311 311 311 311 311 311 311 312 312 312 312 312 311 311 309 308 308
312 316 317 318 319 318 318 316 314 313 312 308 304 305 305 305 306 307 307 309 310 309 310 311 311 310 310 310 310 310 310 310 311 311 311 312 312 311 310 309 309 309 308
311 311 311 312 315 317 317 316 314 312 311 308 304 305 306 305 305 306 306 306 309 309 309 309 309 309 309 309 309 309 310 310 311 310 310 311 311 309 309 309 309 308 308
310 311 311 312 312 313 314 314 314 313 311 309 304 304 305 305 305 305 306 306 306 308 309 309 309 309 309 309 309 310 310 310 310 310 310 309 308 309 309 308 309 307 307
307 308 310 311 311 312 313 313 313 312 312 311 307 304 304 306 306 306 306 306 306 306 309 308 308 308 309 308 308 308 309 308 309 309 308 308 308 309 308 308 308 308 308
305 306 306 308 310 310 311 312 312 311 311 311 310 307 304 304 306 306 306 306 306 306 307 308 308 309 308 308 308 307 307 307 307 307 308 308 309 309 308 309 308 307 307
302 304 305 305 307 309 310 311 311 311 310 310 310 309 306 304 303 305 305 305 306 306 306 306 307 308 308 309 308 307 307 307 307 307 308 310 309 309 308 308 308 307 307
301 300 301 304 305 305 307 309 310 311 311 311 311 310 309 307 304 303 304 305 305 305 306 306 306 306 306 307 308 307 306 306 306 306 307 309 309 308 308 308 307 305 306
300 301 300 300 301 303 304 305 306 309 310 310 311 311 310 309 307 304 303 303 304 305 305 305 305 305 305 305 306 306 306 306 306 306 306 307 306 306 308 307 306 306 305
295 299 300 300 300 300 301 304 305 305 307 309 309 310 310 310 309 307 303 302 303 304 304 304 304 304 304 304 304 305 306 306 305 306 306 305 306 306 308 306 305 304 303
295 295 298 300 300 299 299 300 302 305 305 306 308 309 310 310 311 310 307 303 303 302 303 303 303 303 303 302 302 303 304 306 305 305 305 305 305 307 307 306 304 303 302
296 296 296 298 300 300 299 299 300 301 303 304 305 306 308 308 309 310 309 307 304 303 303 303 303 302 302 302 302 304 305 306 305 305 305 305 306 307 307 305 303 302 301
297 297 297 298 300 300 299 299 299 300 301 302 303 304 305 307 308 308 309 308 306 303 303 302 302 302 302 301 303 303 304 304 305 305 305 306 307 306 305 303 302 300 299
298 298 298 299 299 300 299 299 299 299 300 300 302 303 303 304 306 308 308 307 307 305 303 302 302 302 302 302 303 303 303 304 305 305 306 306 305 304 303 301 300 299 298
298 298 298 298 298 299 299 299 299 299 299 300 300 301 302 301 302 305 306 307 306 305 303 302 302 302 301 303 302 304 304 305 305 305 305 304 302 301 300 299 299 298 296
296 297 297 297 298 298 298 299 299 299 299 299 299 298 299 299 299 301 304 305 305 304 302 302 301 301 302 302 303 304 305 304 304 303 302 301 300 300 299 298 295 292 290
Wind_Speed
45 46 46 45 42 39 35 32 28 26 25 24 22 20 19 19 19 20 18 16 13 14 18 19 22 23 25 30 21 10 9 13 8 21 19 18 17 16 15 12 11 8 5
44 47 47 45 42 40 37 33 30 27 26 24 24 21 21 19 19 20 20 18 15 16 18 21 24 26 24 22 13 11 7 2 10 23 22 19 16 16 14 11 9 7 5
43 46 46 44 43 42 38 35 31 28 27 26 25 23 21 20 20 20 20 19 17 17 17 22 26 28 25 23 12 11 9 5 11 18 21 19 18 16 14 12 7 5 5
41 44 45 45 44 42 38 35 31 28 27 28 26 24 22 20 20 21 22 21 19 18 19 23 26 27 26 23 14 9 6 8 11 17 18 19 17 15 15 12 9 5 4
40 42 43 43 42 40 37 34 31 30 28 28 27 25 23 21 21 22 22 23 21 21 22 24 24 26 26 19 9 7 6 7 10 14 16 17 16 14 13 11 10 7 7
37 39 42 43 43 40 38 35 33 30 29 29 28 27 26 23 22 21 21 24 24 24 24 25 26 26 26 19 12 10 8 7 10 10 11 14 14 10 10 10 11 12 13
33 37 39 41 41 39 37 35 33 31 31 29 29 28 26 24 22 21 20 23 25 26 27 27 26 26 27 22 18 14 11 10 11 9 8 8 9 10 9 11 11 11 12
31 33 36 39 40 39 37 36 34 33 31 30 30 29 27 25 23 21 20 22 27 28 28 27 28 28 28 26 23 20 15 13 13 11 11 12 10 11 12 12 13 14 14
31 34 36 38 40 38 37 36 34 33 32 31 31 30 29 27 25 22 20 21 26 29 28 27 28 28 27 25 25 23 20 17 15 13 11 11 10 11 12 11 10 11 10
29 32 35 38 38 39 38 38 36 34 32 32 31 30 29 28 26 23 21 21 25 28 26 26 25 25 25 25 25 24 22 19 18 16 16 15 12 13 12 12 12 12 10
25 28 31 32 34 35 36 36 35 35 33 32 31 31 30 28 27 24 22 22 24 28 29 30 28 28 27 25 24 23 21 20 19 18 17 14 12 11 12 13 12 13 12
21 25 28 31 33 35 36 36 35 34 33 32 32 32 31 29 28 25 23 22 22 24 28 28 27 27 26 25 24 22 20 22 21 20 19 17 16 11 12 12 12 10 12
17 21 23 26 29 32 34 34 36 36 36 36 35 35 34 32 30 28 25 23 23 24 23 23 24 24 23 23 22 22 23 23 22 21 20 18 14 11 13 14 11 12 13
13 16 20 23 26 29 31 33 35 37 38 37 38 37 36 34 34 32 31 27 26 26 25 24 24 24 24 23 23 24 23 21 20 19 16 15 14 15 13 13 13 13 12
10 13 17 20 24 27 29 31 34 35 37 38 38 37 37 37 37 33 32 31 29 27 27 28 29 28 28 27 26 24 23 22 21 18 15 16 17 16 13 15 14 13 13
8 11 13 17 21 25 27 29 32 34 35 36 34 33 32 31 30 31 32 31 30 29 30 32 33 33 32 30 28 26 23 21 18 16 18 18 17 16 16 16 13 10 13
3 6 8 13 18 23 26 29 32 34 35 35 34 32 32 28 28 31 32 31 30 29 33 33 33 33 33 32 30 28 26 22 19 19 20 18 19 18 16 16 17 14 12
3 4 5 7 10 17 22 26 29 32 34 36 36 35 34 31 31 28 29 31 35 38 37 36 34 32 31 31 32 30 28 25 24 23 22 21 20 19 17 17 15 16 16
9 8 6 6 6 10 15 20 25 29 32 34 35 37 36 33 31 30 30 36 40 40 38 37 37 34 30 29 30 31 31 29 26 25 23 22 20 21 19 14 11 13 11
16 14 12 11 10 11 12 15 21 25 29 33 35 37 37 37 39 40 40 39 39 40 38 40 38 32 30 30 29 30 32 33 29 28 25 24 24 22 20 17 13 12 11
22 22 21 19 18 16 15 15 17 21 26 30 33 35 37 39 42 43 44 45 43 40 40 41 37 31 30 30 30 33 34 34 31 29 26 25 25 23 22 21 17 16 14
27 26 26 25 24 22 20 19 19 21 23 27 29 31 34 38 41 43 45 45 43 41 41 40 35 31 30 29 30 29 30 32 30 28 26 25 24 22 22 23 20 18 17
28 27 27 27 27 26 25 24 23 23 24 25 27 29 31 35 40 43 44 44 44 42 40 39 34 32 31 30 30 29 30 29 26 26 27 25 22 23 22 20 20 20 16
28 27 26 26 27 28 29 29 28 26 26 26 26 27 31 32 36 41 43 43 42 43 41 38 35 34 32 31 31 29 29 28 26 26 25 23 23 22 22 22 21 18 18
27 27 27 27 27 27 29 30 30 29 28 28 28 27 29 31 32 36 40 41 41 42 40 37 36 34 32 31 29 29 28 27 27 27 26 25 23 21 21 21 21 19 17
26 27 28 28 28 27 28 29 30 31 30 30 30 28 28 29 30 32 36 39 41 41 39 38 37 34 33 32 30 29 29 28 27 28 26 23 21 22 22 20 19 17 15
Wind_Direction
204 203 203 205 204 203 201 200 200 198 195 192 191 190 186 187 184 185 186 180 176 170 166 166 173 175 166 170 167 175 150 182 185 167 162 153 148 144 144 151 150 162 169
202 201 201 203 201 201 198 199 199 197 196 193 192 190 188 187 187 185 185 185 182 176 174 171 175 179 174 171 173 164 159 197 202 172 166 163 160 154 152 150 141 135 134
199 200 200 200 200 200 198 198 197 197 196 194 194 192 190 187 188 185 185 187 184 183 182 175 174 181 179 173 152 167 182 152 173 181 172 169 167 166 162 153 139 155 153
198 198 198 199 200 199 197 197 197 197 197 196 194 193 192 189 188 188 186 186 187 184 183 176 176 181 184 181 179 162 161 162 163 182 180 176 176 179 180 180 182 176 204
194 195 196 198 198 198 197 197 197 198 198 198 194 192 193 191 188 190 190 190 188 187 183 178 179 182 182 179 169 174 173 167 166 176 185 185 185 191 204 211 217 221 247
191 192 194 195 196 196 197 197 198 197 199 198 196 196 195 193 191 192 194 193 191 189 189 184 185 183 182 188 184 179 165 174 183 179 187 200 206 207 217 233 244 262 265
187 190 192 193 195 196 198 197 198 198 200 199 198 198 198 196 195 194 196 199 195 192 193 190 187 188 190 193 201 195 190 176 167 186 198 208 221 231 240 248 260 276 275
186 188 191 193 195 196 197 198 198 200 200 200 200 200 198 198 200 198 201 202 199 196 196 195 196 196 198 201 205 206 202 199 196 195 202 205 218 225 228 242 252 259 263
186 187 189 192 194 197 198 199 200 201 200 201 203 202 201 200 200 201 201 196 192 192 195 196 199 201 200 198 203 206 209 210 208 212 211 223 229 245 243 259 266 267 277
191 191 190 192 196 197 199 200 201 203 203 204 203 205 204 202 202 203 200 196 191 189 192 196 198 200 199 199 205 210 212 214 215 213 217 224 243 236 236 260 256 247 267
190 192 194 197 198 200 201 203 203 203 204 207 206 205 205 205 206 206 204 200 199 193 195 197 199 201 206 209 214 218 222 221 222 222 223 226 210 223 250 248 254 265 266
190 193 196 198 198 201 203 204 205 206 206 206 205 205 205 206 209 209 207 207 203 202 200 202 203 204 208 213 217 219 220 218 220 220 226 225 221 221 249 249 251 276 273
186 190 196 202 203 206 207 207 206 207 207 205 206 205 204 205 207 209 210 209 207 205 205 207 207 209 210 213 217 218 218 217 222 225 229 227 230 233 241 243 258 271 280
186 192 195 198 202 205 207 208 210 210 208 209 208 207 206 207 207 208 207 208 209 206 204 207 209 210 210 210 213 215 219 223 228 232 237 243 233 239 249 250 251 266 271
186 191 198 203 205 207 211 212 213 215 216 213 213 213 210 211 212 212 211 210 210 210 205 208 208 206 208 210 212 214 216 222 229 233 227 231 232 232 238 253 251 257 271
182 201 203 207 208 211 213 214 217 218 220 220 223 224 222 224 221 218 217 218 219 217 210 214 213 213 213 214 216 220 224 227 224 229 227 228 230 234 241 247 253 267 271
210 197 202 214 216 217 216 216 217 219 220 221 223 224 227 230 228 225 224 222 222 223 223 225 223 221 220 220 221 224 228 229 231 232 229 232 233 237 244 250 254 256 267
279 266 240 223 222 226 227 227 226 224 223 224 223 223 225 223 225 226 227 225 221 221 227 229 231 231 228 226 224 225 226 226 227 231 236 231 235 241 253 254 253 263 263
267 266 268 260 249 243 238 235 235 232 230 229 228 228 226 224 225 225 222 226 228 227 226 230 232 234 233 232 229 227 226 221 225 231 234 232 239 248 249 239 253 257 231
279 271 267 265 264 262 257 248 239 239 236 233 230 228 228 225 222 222 222 222 225 228 231 236 237 234 234 234 232 229 225 220 222 226 232 234 239 244 241 223 224 226 228
272 273 271 267 265 265 263 260 255 247 244 241 237 231 231 230 229 229 229 228 227 226 228 234 238 238 235 233 233 230 227 222 220 228 231 235 242 243 228 215 216 219 230
267 265 265 266 267 269 267 261 258 257 252 249 246 241 233 231 232 233 234 235 234 232 232 234 235 238 238 235 231 226 221 217 220 226 226 224 235 235 219 215 214 221 230
265 264 261 261 263 267 271 269 263 258 256 255 251 248 242 236 232 233 234 236 236 235 235 235 232 231 231 230 224 223 222 218 218 221 225 227 223 215 210 217 224 228 230
254 256 256 256 258 262 266 269 269 265 261 259 256 253 249 242 237 235 235 234 235 236 236 234 229 229 229 224 220 219 215 215 217 218 220 218 211 208 214 221 228 232 235
246 249 251 254 255 255 258 263 265 264 262 261 260 256 254 249 243 238 236 234 233 233 234 232 227 227 224 217 216 212 209 212 214 210 207 207 212 217 223 230 236 237 236
241 245 248 250 253 257 260 262 262 263 261 259 259 257 254 252 247 243 238 234 232 230 228 227 225 224 215 211 207 209 209 204 203 204 205 211 222 231 237 233 226 222 223